CW4591 Weather Reports


Display with metric or nautical units.
time (UTC)temp
F
wind
direction
speed
MPH
gust
MPH
rain 1hr
in
rain 24hr
in
rain mn
in
humidity
%
barometer
mb
20210621230024 58 16 3.0 9.0 0.00 0.02 0.02 85 1004.3
20210621224515 60 280 7.0 13.0 0.00 0.02 0.02 73 1003.9
20210621223010 59 314 7.0 16.0 0.00 0.02 0.02 73 1003.9
20210621221541 59 325 6.0 13.0 0.00 0.02 0.02 76 1003.9
20210621220026 59 298 6.0 14.0 0.00 0.02 0.02 77 1003.8
20210621214505 58 335 4.0 12.0 0.00 0.02 0.02 79 1003.7
20210621213010 58 289 4.0 11.0 0.00 0.02 0.02 80 1003.7
20210621211653 57 329 4.0 11.0 0.00 0.02 0.02 81 1003.6
20210621210213 56 276 3.0 11.0 0.00 0.02 0.02 82 1003.6
20210621204707 56 310 3.0 13.0 0.00 0.02 0.02 82 1003.5
20210621203249 57 327 4.0 16.0 0.00 0.02 0.02 81 1003.4
20210621201649 57 337 6.0 18.0 0.00 0.02 0.02 80 1003.3
20210621200127 58 335 4.0 18.0 0.00 0.02 0.02 79 1003.1
20210621194753 58 4 6.0 14.0 0.00 0.02 0.02 80 1003.0
20210621193113 57 354 5.0 14.0 0.00 0.02 0.02 82 1002.9
20210621191633 56 359 4.0 15.0 0.00 0.02 0.02 84 1002.9
20210621190140 56 307 6.0 14.0 0.00 0.02 0.02 83 1002.8
20210621184616 57 287 5.0 9.0 0.00 0.02 0.02 82 1002.7
20210621183136 57 293 4.0 11.0 0.00 0.02 0.02 81 1002.7
20210621181718 57 333 6.0 15.0 0.00 0.02 0.02 80 1002.6
20210621180138 57 316 6.0 14.0 0.00 0.02 0.02 79 1002.6
20210621174640 58 321 5.0 10.0 0.00 0.02 0.02 79 1002.6
20210621173315 57 341 6.0 15.0 0.00 0.02 0.02 80 1002.5
20210621171619 56 308 7.0 14.0 0.01 0.02 0.02 82 1002.5
20210621170121 56 338 5.0 17.0 0.01 0.02 0.02 83 1002.3
20210621164623 55 344 6.0 12.0 0.01 0.02 0.02 84 1002.3
20210621163120 55 316 4.0 13.0 0.01 0.02 0.02 84 1002.4
20210621161556 55 315 4.0 11.0 0.00 0.01 0.01 85 1002.4
20210621160207 55 337 6.0 14.0 0.00 0.01 0.01 84 1002.4
20210621154702 54 327 4.0 13.0 0.00 0.01 0.01 84 1002.4
20210621153109 54 285 4.0 10.0 0.00 0.01 0.01 85 1002.4
20210621151631 54 359 4.0 9.0 0.00 0.01 0.01 85 1002.4
20210621150134 54 298 2.0 10.0 0.00 0.01 0.01 86 1002.4
20210621144628 54 295 3.0 9.0 0.00 0.01 0.01 86 1002.4
20210621143132 53 290 4.0 8.0 0.00 0.01 0.01 87 1002.4
20210621141554 53 289 3.0 9.0 0.00 0.01 0.01 88 1002.4
20210621140050 53 266 1.0 8.0 0.00 0.01 0.01 89 1002.5
20210621134556 53 275 2.0 9.0 0.00 0.01 0.01 90 1002.4
20210621133057 52 288 0.0 6.0 0.00 0.01 0.01 90 1002.5
20210621131549 53 260 2.0 7.0 0.00 0.01 0.01 89 1002.5
20210621130036 53 276 2.0 5.0 0.00 0.01 0.01 88 1002.6
20210621124543 53 285 0.0 4.0 0.00 0.01 0.01 87 1002.5
20210621123105 53 323 0.0 5.0 0.00 0.01 0.01 86 1002.6
20210621121607 54 302 2.0 5.0 0.00 0.01 0.01 85 1002.7
20210621120049 53 283 4.0 8.0 0.00 0.01 0.01 86 1002.7
20210621114518 54 359 3.0 6.0 0.00 0.01 0.01 86 1002.8
20210621113028 53 314 2.0 9.0 0.01 0.01 0.01 86 1002.7
20210621111524 54 300 3.0 8.0 0.01 0.01 0.01 86 1002.8
20210621110014 54 286 1.0 5.0 0.01 0.01 0.01 86 1002.8
20210621104521 55 258 1.0 4.0 0.01 0.01 0.01 83 1002.8
20210621103008 55 359 1.0 7.0 0.00 0.00 0.00 80 1002.8
20210621101515 56 324 3.0 7.0 0.00 0.00 0.00 78 1002.8
20210621100010 56 288 1.0 4.0 0.00 0.00 0.00 76 1002.9
20210621094502 57 306 0.0 6.0 0.00 0.00 0.00 74 1002.9
20210621093002 57 316 1.0 6.0 0.00 0.00 0.00 72 1002.8
20210621091503 57 286 2.0 7.0 0.00 0.00 0.00 71 1002.8
20210621090227 57 312 3.0 6.0 0.00 0.00 0.00 72 1002.8
20210621084623 57 322 2.0 10.0 0.00 0.00 0.00 73 1002.8
20210621083154 57 291 2.0 6.0 0.00 0.00 0.00 74 1002.9
20210621081720 57 324 0.0 3.0 0.00 0.00 0.00 75 1002.8
20210621080202 57 324 0.0 5.0 0.00 0.00 0.00 73 1002.9
20210621074725 57 337 0.0 4.0 0.00 0.00 0.00 73 1003.0
20210621073132 57 317 0.0 5.0 0.00 0.00 0.00 74 1002.9
20210621071630 58 359 1.0 5.0 0.00 0.00 0.00 73 1003.0
20210621070123 58 299 2.0 5.0 0.00 0.00 0.00 73 1003.0
20210621064726 58 326 3.0 8.0 0.00 0.00 0.00 73 1003.1
20210621063206 58 339 2.0 9.0 0.00 0.00 0.00 73 1003.2
20210621061641 58 263 0.0 5.0 0.00 0.00 0.00 76 1003.3
20210621060113 59 260 0.0 3.0 0.00 0.00 0.00 79 1003.3
20210621054619 59 31 0.0 3.0 0.00 0.00 0.00 76 1003.3
20210621053239 61 64 0.0 3.0 0.00 0.00 0.00 78 1003.7
20210621051558 62 276 0.0 0.0 0.00 0.00 0.00 71 1003.8
20210621050103 64 276 0.0 0.0 0.00 0.00 0.00 61 1003.5
20210621044628 64 276 0.0 2.0 0.00 0.00 0.00 57 1003.4
20210621043135 65 276 0.0 4.0 0.00 0.00 0.00 54 1003.4
20210621041631 65 296 0.0 2.0 0.00 0.00 0.00 53 1003.3
20210621040108 66 297 0.0 1.0 0.00 0.00 0.00 51 1003.5
20210621034646 66 296 0.0 3.0 0.00 0.00 0.00 47 1003.6
20210621033055 66 297 0.0 4.0 0.00 0.00 0.00 46 1003.6
20210621031654 67 257 0.0 3.0 0.00 0.00 0.00 46 1003.8
20210621030049 67 194 0.0 0.0 0.00 0.00 0.00 45 1003.9
20210621024557 67 195 0.0 0.0 0.00 0.00 0.00 45 1004.1
20210621023115 67 194 0.0 0.0 0.00 0.00 0.00 48 1004.2
20210621021538 68 195 0.0 1.0 0.00 0.00 0.00 44 1004.4
20210621020309 68 194 0.0 2.0 0.00 0.00 0.00 44 1004.4
20210621014617 68 195 0.0 4.0 0.00 0.00 0.00 42 1004.6
20210621013118 68 125 1.0 5.0 0.00 0.00 0.00 42 1004.8
20210621011559 68 159 2.0 6.0 0.00 0.00 0.00 43 1005.0
20210621010026 68 137 0.0 5.0 0.00 0.00 0.00 45 1005.2
20210621004525 68 165 1.0 8.0 0.00 0.00 0.00 42 1005.4
20210621003053 67 241 0.0 6.0 0.00 0.00 0.00 45 1005.6
20210621001611 67 233 0.0 6.0 0.00 0.00 0.00 45 1005.8
20210621000024 67 170 1.0 8.0 0.00 0.00 0.00 44 1005.9
20210620234531 67 174 4.0 7.0 0.00 0.00 0.00 45 1006.2
20210620233026 68 149 3.0 8.0 0.00 0.00 0.00 44 1006.3
20210620231519 68 161 2.0 10.0 0.00 0.00 0.00 45 1006.4